K5NCO Weather Reports


time (UTC)temp
F
wind
direction
speed
knots
gust
knots
rain 1hr
in
rain 24hr
in
rain mn
in
humidity
%
barometer
mb
20260903015618 89 84 0.9 1.7 0.00 0.00 0.00 55 1012.9
20260903015112 89 85 0.9 1.7 0.00 0.00 0.00 55 1013.1
20260903014606 89 87 4.3 5.2 0.00 0.00 0.00 55 1013.1
20260903014101 89 111 4.3 5.2 0.00 0.00 0.00 55 1013.1
20260903013601 90 43 1.7 1.7 0.00 0.00 0.00 55 1012.9
20260903013055 90 46 2.6 5.2 0.00 0.00 0.00 55 1012.9
20260903012554 90 114 3.5 5.2 0.00 0.00 0.00 55 1013.0
20260903012049 90 103 1.7 2.6 0.00 0.00 0.00 55 1012.9
20260903011548 90 85 0.9 1.7 0.00 0.00 0.00 54 1013.1
20260903011038 90 100 3.5 3.5 0.00 0.00 0.00 54 1013.0
20260903010533 90 86 4.3 6.1 0.00 0.00 0.00 53 1013.0
20260903010032 91 103 3.5 3.5 0.00 0.00 0.00 52 1012.9
20260903005532 91 74 2.6 3.5 0.00 0.00 0.00 51 1012.9
20260903005027 92 115 4.3 7.0 0.00 0.00 0.00 50 1013.0
20260903004526 92 140 5.2 6.1 0.00 0.00 0.00 49 1012.9
20260903004022 92 126 5.2 5.2 0.00 0.00 0.00 48 1012.9
20260903003517 92 83 3.5 5.2 0.00 0.00 0.00 49 1013.1
20260903003013 92 148 0.9 0.9 0.00 0.00 0.00 50 1012.9
20260903002512 92 125 0.9 1.7 0.00 0.00 0.00 50 1013.1
20260903002008 91 124 2.6 3.5 0.00 0.00 0.00 51 1013.0
20260903001502 91 115 3.5 3.5 0.00 0.00 0.00 51 1012.9
20260903001002 92 150 3.5 3.5 0.00 0.00 0.00 51 1013.0
20260903000457 91 182 3.5 7.0 0.00 0.00 0.00 50 1013.0
20260902235955 91 199 1.7 1.7 0.00 0.00 0.00 51 1013.1
20260902235450 91 170 7.8 8.7 0.00 0.00 0.00 51 1013.2
20260902234945 92 153 9.6 12.2 0.00 0.00 0.00 51 1013.0
20260902234440 93 148 5.2 6.1 0.00 0.00 0.00 50 1013.0
20260902233938 95 298 0.0 0.9 0.00 0.00 0.00 45 1013.1
20260902233432 95 331 3.5 3.5 0.00 0.00 0.00 46 1012.9
20260902232932 95 325 0.0 0.9 0.00 0.00 0.00 47 1012.9
20260902232427 95 312 0.9 1.7 0.00 0.00 0.00 47 1013.0
20260902231921 95 0 0.0 0.0 0.00 0.00 0.00 47 1012.7
20260902231416 94 8 0.0 0.9 0.00 0.00 0.00 47 1012.9
20260902230910 94 10 1.7 1.7 0.00 0.00 0.00 47 1012.8
20260902230410 95 13 0.0 0.0 0.00 0.00 0.00 47 1012.6
20260902225904 94 13 0.0 0.9 0.00 0.00 0.00 47 1012.8
20260902225359 95 13 1.7 6.1 0.00 0.00 0.00 45 1012.9
20260902224858 98 18 3.5 6.1 0.00 0.00 0.00 42 1012.6
20260902224358 98 81 0.0 0.0 0.00 0.00 0.00 40 1012.5
20260902223855 99 264 0.0 0.0 0.00 0.00 0.00 39 1012.5
20260902223349 98 340 0.0 0.0 0.00 0.00 0.00 40 1012.5
20260902222844 98 305 0.0 0.0 0.00 0.00 0.00 40 1012.6
20260902222342 98 202 0.0 0.0 0.00 0.00 0.00 40 1012.7
20260902221837 98 196 0.0 0.0 0.00 0.00 0.00 40 1012.5
20260902221336 98 185 2.6 3.5 0.00 0.00 0.00 41 1012.7
20260902220832 98 179 0.0 0.0 0.00 0.00 0.00 41 1012.4
20260902220331 97 169 0.0 0.0 0.00 0.00 0.00 41 1012.6
20260902215826 97 130 2.6 3.5 0.00 0.00 0.00 41 1012.6
20260902215321 98 142 2.6 5.2 0.00 0.00 0.00 41 1012.7
20260902214817 97 164 5.2 6.1 0.00 0.00 0.00 41 1012.8
20260902214316 97 108 3.5 6.1 0.00 0.00 0.00 41 1012.9
20260902213811 98 141 0.9 2.6 0.00 0.00 0.00 41 1012.9
20260902213307 98 221 0.0 0.9 0.00 0.00 0.00 40 1012.9
20260902212805 98 171 1.7 1.7 0.00 0.00 0.00 40 1013.0
20260902212305 98 140 0.0 0.0 0.00 0.00 0.00 40 1012.9
20260902211758 98 14 0.0 0.0 0.00 0.00 0.00 40 1012.9
20260902211254 98 323 0.0 0.0 0.00 0.00 0.00 41 1013.1
20260902210754 98 315 1.7 1.7 0.00 0.00 0.00 40 1013.0
20260902210249 98 316 0.9 1.7 0.00 0.00 0.00 39 1013.0
20260902205747 99 218 0.0 0.9 0.00 0.00 0.00 39 1013.4
20260902205242 99 236 1.7 3.5 0.00 0.00 0.00 40 1013.4
20260902204737 99 176 1.7 1.7 0.00 0.00 0.00 40 1013.4
20260902204232 98 318 0.9 3.5 0.00 0.00 0.00 40 1013.2
20260902203727 99 252 4.3 6.1 0.00 0.00 0.00 40 1013.4
20260902203222 99 120 2.6 3.5 0.00 0.00 0.00 40 1013.6
20260902202716 99 249 3.5 6.1 0.00 0.00 0.00 39 1013.8
20260902202213 100 203 1.7 5.2 0.00 0.00 0.00 39 1013.8
20260902201709 100 260 1.7 2.6 0.00 0.00 0.00 39 1013.7
20260902201208 100 338 5.2 7.0 0.00 0.00 0.00 39 1013.9
20260902200703 99 30 0.0 0.0 0.00 0.00 0.00 40 1014.0
20260902200159 98 71 2.6 3.5 0.00 0.00 0.00 41 1014.0
20260902195649 98 333 5.2 7.0 0.00 0.00 0.00 41 1014.1
20260902195148 97 329 3.5 3.5 0.00 0.00 0.00 42 1014.2
20260902194647 96 342 1.7 1.7 0.00 0.00 0.00 43 1014.4
20260902194142 97 302 1.7 1.7 0.00 0.00 0.00 43 1014.3
20260902193638 98 331 3.5 5.2 0.00 0.00 0.00 42 1014.5
20260902193133 98 322 0.0 0.0 0.00 0.00 0.00 42 1014.4
20260902192631 97 220 0.0 0.9 0.00 0.00 0.00 42 1014.5
20260902192131 97 3 3.5 5.2 0.00 0.00 0.00 41 1014.7
20260902191625 98 312 1.7 2.6 0.00 0.00 0.00 42 1014.8
20260902191120 97 255 0.0 0.0 0.00 0.00 0.00 42 1015.0
20260902190616 96 226 1.7 1.7 0.00 0.00 0.00 43 1014.9
20260902190110 98 231 4.3 5.2 0.00 0.00 0.00 42 1015.1
20260902185606 97 139 2.6 2.6 0.00 0.00 0.00 43 1015.0
20260902185102 97 228 2.6 2.6 0.00 0.00 0.00 42 1015.4
20260902184557 98 177 4.3 5.2 0.00 0.00 0.00 43 1015.3
20260902184052 98 173 0.9 1.7 0.00 0.00 0.00 41 1015.4
20260902183548 98 212 3.5 3.5 0.00 0.00 0.00 40 1015.5
20260902183045 96 291 3.5 5.2 0.00 0.00 0.00 43 1015.6
20260902182540 97 245 2.6 3.5 0.00 0.00 0.00 43 1015.8
20260902182037 95 109 0.0 0.0 0.00 0.00 0.00 44 1015.8
20260902181533 96 99 0.0 0.0 0.00 0.00 0.00 44 1015.9
20260902181026 96 264 3.5 5.2 0.00 0.00 0.00 45 1016.2
20260902180520 96 246 4.3 5.2 0.00 0.00 0.00 44 1016.0
20260902180016 96 147 0.0 1.7 0.00 0.00 0.00 44 1016.1
20260902175510 95 124 0.0 0.9 0.00 0.00 0.00 46 1016.4
20260902175007 96 175 5.2 6.1 0.00 0.00 0.00 44 1016.5
20260902174503 94 330 1.7 1.7 0.00 0.00 0.00 46 1016.5
20260902173958 94 140 3.5 3.5 0.00 0.00 0.00 46 1016.5
20260902173458 95 168 5.2 5.2 0.00 0.00 0.00 46 1016.6
20260902172953 95 222 0.9 1.7 0.00 0.00 0.00 45 1016.8
20260902172452 95 217 3.5 5.2 0.00 0.00 0.00 46 1016.7
20260902171948 95 221 5.2 6.1 0.00 0.00 0.00 45 1016.9
20260902171443 95 241 1.7 1.7 0.00 0.00 0.00 48 1017.0
20260902170939 94 187 6.1 7.0 0.00 0.00 0.00 48 1017.0
20260902170434 94 213 4.3 5.2 0.00 0.00 0.00 48 1017.0
20260902165930 93 272 4.3 5.2 0.00 0.00 0.00 48 1017.1
20260902165428 93 205 2.6 3.5 0.00 0.00 0.00 48 1017.2
20260902164923 93 261 1.7 3.5 0.00 0.00 0.00 48 1017.2
20260902164418 93 179 1.7 2.6 0.00 0.00 0.00 50 1017.4
20260902163917 93 250 3.5 3.5 0.00 0.00 0.00 49 1017.4
20260902163413 93 217 5.2 7.0 0.00 0.00 0.00 49 1017.4
20260902162910 92 173 4.3 6.1 0.00 0.00 0.00 49 1017.6
20260902162406 92 176 3.5 3.5 0.00 0.00 0.00 49 1017.5
20260902161900 92 210 1.7 1.7 0.00 0.00 0.00 49 1017.3
20260902161355 93 220 1.7 2.6 0.00 0.00 0.00 49 1017.6
20260902160851 93 262 1.7 1.7 0.00 0.00 0.00 48 1017.3
20260902160347 92 238 2.6 3.5 0.00 0.00 0.00 50 1017.4
20260902155844 91 179 4.3 5.2 0.00 0.00 0.00 51 1017.3
20260902155343 90 256 3.5 3.5 0.00 0.00 0.00 52 1017.3
20260902154839 90 242 4.3 5.2 0.00 0.00 0.00 52 1017.5
20260902154335 90 265 5.2 6.1 0.00 0.00 0.00 53 1017.5
20260902153833 90 262 2.6 3.5 0.00 0.00 0.00 55 1017.5
20260902153332 89 236 3.5 5.2 0.00 0.00 0.00 56 1017.5
20260902152829 90 252 3.5 3.5 0.00 0.00 0.00 58 1017.6
20260902152325 90 233 2.6 3.5 0.00 0.00 0.00 55 1017.6
20260902151820 88 251 0.9 1.7 0.00 0.00 0.00 58 1017.6
20260902151315 87 262 2.6 5.2 0.00 0.00 0.00 60 1017.6
20260902150809 87 277 5.2 7.0 0.00 0.00 0.00 60 1017.5
20260902150306 86 235 4.3 5.2 0.00 0.00 0.00 62 1017.5
20260902145805 86 227 3.5 5.2 0.00 0.00 0.00 63 1017.4
20260902145301 87 252 2.6 5.2 0.00 0.00 0.00 62 1017.6
20260902144756 87 199 1.7 1.7 0.00 0.00 0.00 63 1017.5
20260902144252 86 247 3.5 5.2 0.00 0.00 0.00 64 1017.6
20260902143746 86 234 4.3 6.1 0.00 0.00 0.00 64 1017.4
20260902143241 86 262 2.6 3.5 0.00 0.00 0.00 64 1017.4
20260902142737 85 253 3.5 7.0 0.00 0.00 0.00 65 1017.5
20260902142232 86 254 4.3 7.0 0.00 0.00 0.00 64 1017.5
20260902141727 85 227 3.5 3.5 0.00 0.00 0.00 66 1017.6
20260902141223 85 205 0.9 1.7 0.00 0.00 0.00 67 1017.5
20260902140718 84 232 0.9 0.9 0.00 0.00 0.00 68 1017.5
20260902140213 83 236 0.0 0.0 0.00 0.00 0.00 69 1017.5
20260902135712 83 238 1.7 1.7 0.00 0.00 0.00 69 1017.3
20260902135208 83 121 3.5 3.5 0.00 0.00 0.00 69 1017.3
20260902134707 83 225 1.7 2.6 0.00 0.00 0.00 69 1017.3
20260902134202 83 238 0.9 1.7 0.00 0.00 0.00 70 1017.2
20260902133657 83 248 1.7 2.6 0.00 0.00 0.00 70 1017.4
20260902133156 82 205 0.9 1.7 0.00 0.00 0.00 71 1017.2
20260902132647 82 255 0.9 1.7 0.00 0.00 0.00 71 1017.2
20260902132142 82 234 1.7 2.6 0.00 0.00 0.00 71 1017.2
20260902131638 81 222 0.9 0.9 0.00 0.00 0.00 72 1017.2
20260902131133 81 201 1.7 1.7 0.00 0.00 0.00 72 1017.2
20260902130629 80 219 1.7 1.7 0.00 0.00 0.00 73 1017.1
20260902130124 80 238 0.9 0.9 0.00 0.00 0.00 75 1017.1
20260902125620 79 198 0.0 0.0 0.00 0.00 0.00 76 1017.0
20260902125115 79 221 0.0 0.0 0.00 0.00 0.00 77 1016.9
20260902124612 78 204 0.9 0.9 0.00 0.00 0.00 78 1016.9
20260902124111 78 199 1.7 1.7 0.00 0.00 0.00 78 1016.8
20260902123607 78 203 0.0 0.0 0.00 0.00 0.00 78 1017.0
20260902123102 78 176 0.0 0.0 0.00 0.00 0.00 78 1016.9
20260902122601 78 167 0.0 0.0 0.00 0.00 0.00 79 1016.7
20260902122057 78 82 0.0 0.0 0.00 0.00 0.00 78 1016.7
20260902121557 78 82 0.0 0.0 0.00 0.00 0.00 78 1016.8
20260902121052 79 82 0.0 0.0 0.00 0.00 0.00 78 1016.6
20260902120548 79 80 0.0 0.0 0.00 0.00 0.00 78 1016.7
20260902120044 79 95 0.0 0.0 0.00 0.00 0.00 77 1016.7
20260902115539 78 197 0.0 0.0 0.00 0.00 0.00 78 1016.8
20260902115035 79 202 0.0 0.0 0.00 0.00 0.00 77 1016.7
20260902114530 79 201 0.0 0.0 0.00 0.00 0.00 77 1016.6
20260902114025 79 198 0.9 1.7 0.00 0.00 0.00 77 1016.6
20260902113520 79 223 0.0 0.0 0.00 0.00 0.00 77 1016.4
20260902113016 79 226 0.9 1.7 0.00 0.00 0.00 77 1016.4
20260902112511 79 247 1.7 2.6 0.00 0.00 0.00 77 1016.3
20260902112008 79 229 0.9 0.9 0.00 0.00 0.00 77 1016.3
20260902111503 79 220 0.9 1.7 0.00 0.00 0.00 77 1016.3
20260902110959 79 248 1.7 1.7 0.00 0.00 0.00 76 1016.4
20260902110455 79 224 2.6 2.6 0.00 0.00 0.00 77 1016.2
20260902105950 79 167 2.6 3.5 0.00 0.00 0.00 77 1016.2
20260902105444 79 181 2.6 2.6 0.00 0.00 0.00 77 1016.2
20260902104939 80 206 1.7 1.7 0.00 0.00 0.00 76 1016.4
20260902104435 80 186 1.7 1.7 0.00 0.00 0.00 76 1016.4
20260902103935 80 206 0.9 0.9 0.00 0.00 0.00 76 1016.3
20260902103430 80 193 2.6 3.5 0.00 0.00 0.00 75 1016.4
20260902102925 80 186 0.9 1.7 0.00 0.00 0.00 75 1016.4
20260902102422 80 205 0.9 1.7 0.00 0.00 0.00 75 1016.5
20260902101918 80 196 1.7 1.7 0.00 0.00 0.00 75 1016.4
20260902101412 80 199 1.7 1.7 0.00 0.00 0.00 75 1016.3
20260902100912 80 213 1.7 1.7 0.00 0.00 0.00 75 1016.2
20260902100406 80 224 0.9 1.7 0.00 0.00 0.00 75 1016.3
20260902095900 80 215 1.7 2.6 0.00 0.00 0.00 75 1016.3
20260902095354 80 192 0.9 1.7 0.00 0.00 0.00 76 1016.5
20260902094849 80 201 2.6 2.6 0.00 0.00 0.00 76 1016.4
20260902094345 80 226 2.6 2.6 0.00 0.00 0.00 76 1016.5
20260902093844 80 230 2.6 2.6 0.00 0.00 0.00 77 1016.4
20260902093340 80 222 0.0 0.0 0.00 0.00 0.00 77 1016.4
20260902092838 80 208 0.0 0.0 0.00 0.00 0.00 78 1016.3
20260902092334 80 208 0.0 0.0 0.00 0.00 0.00 78 1016.5
20260902091829 80 199 0.9 0.9 0.00 0.00 0.00 78 1016.5
20260902091325 80 183 0.9 0.9 0.00 0.00 0.00 78 1016.4
20260902090821 80 183 0.9 0.9 0.00 0.00 0.00 78 1016.4
20260902090320 80 205 1.7 1.7 0.00 0.00 0.00 78 1016.4
20260902085820 80 163 2.6 2.6 0.00 0.00 0.00 78 1016.5
20260902085315 80 161 2.6 2.6 0.00 0.00 0.00 77 1016.5
20260902084810 80 150 1.7 1.7 0.00 0.00 0.00 77 1016.5
20260902084307 80 146 1.7 1.7 0.00 0.00 0.00 77 1016.4
20260902083801 80 130 0.0 0.0 0.00 0.00 0.00 77 1016.4
20260902083256 80 173 0.0 0.0 0.00 0.00 0.00 77 1016.6
20260902082751 80 164 0.0 0.0 0.00 0.00 0.00 77 1016.8
20260902082248 80 157 0.9 0.9 0.00 0.00 0.00 77 1016.7
20260902081743 80 121 0.9 1.7 0.00 0.00 0.00 76 1016.5
20260902081239 80 110 2.6 2.6 0.00 0.00 0.00 76 1016.8
20260902080734 80 132 0.9 0.9 0.00 0.00 0.00 76 1016.8
20260902080231 80 87 0.0 0.9 0.00 0.00 0.00 76 1016.7
20260902075730 80 88 1.7 1.7 0.00 0.00 0.00 75 1016.9
20260902075226 80 83 1.7 1.7 0.00 0.00 0.00 75 1016.8
20260902074726 80 86 0.0 0.0 0.00 0.00 0.00 75 1016.8
20260902074222 81 57 1.7 1.7 0.00 0.00 0.00 74 1016.8
20260902073717 81 55 0.9 1.7 0.00 0.00 0.00 74 1017.0
20260902073213 81 98 0.9 0.9 0.00 0.00 0.00 73 1016.8
20260902072709 81 120 0.0 0.9 0.00 0.00 0.00 73 1016.9
20260902072205 81 83 0.9 1.7 0.00 0.00 0.00 73 1016.9
20260902071701 81 95 2.6 2.6 0.00 0.00 0.00 73 1016.7
20260902071155 81 84 0.0 0.0 0.00 0.00 0.00 73 1016.8
20260902070652 81 80 3.5 3.5 0.00 0.00 0.00 72 1017.0
20260902070151 81 68 1.7 1.7 0.00 0.00 0.00 72 1017.0
20260902065650 82 77 0.9 0.9 0.00 0.00 0.00 72 1016.9
20260902065146 82 127 0.0 0.0 0.00 0.00 0.00 72 1017.1
20260902064641 82 52 0.9 0.9 0.00 0.00 0.00 71 1017.0
20260902064137 82 66 1.7 1.7 0.00 0.00 0.00 71 1017.0
20260902063632 82 105 0.0 0.9 0.00 0.00 0.00 71 1017.0
20260902063127 82 43 0.9 1.7 0.00 0.00 0.00 71 1017.0
20260902062626 82 50 1.7 2.6 0.00 0.00 0.00 71 1017.2
20260902062121 82 39 1.7 2.6 0.00 0.00 0.00 71 1017.0
20260902061620 83 80 0.9 1.7 0.00 0.00 0.00 70 1016.9
20260902061116 83 65 0.9 0.9 0.00 0.00 0.00 70 1016.9
20260902060613 83 83 0.0 0.9 0.00 0.00 0.00 69 1017.0
20260902060109 84 81 3.5 3.5 0.00 0.00 0.00 69 1017.0
20260902055604 84 107 1.7 1.7 0.00 0.00 0.00 69 1016.9
20260902055059 84 103 1.7 2.6 0.00 0.00 0.00 69 1017.1
20260902054554 84 85 1.7 1.7 0.00 0.00 0.00 68 1017.0
20260902054050 84 127 1.7 2.6 0.00 0.00 0.00 68 1017.0
20260902053544 84 128 0.0 0.0 0.00 0.00 0.00 67 1016.8
20260902053039 84 92 0.9 1.7 0.00 0.00 0.00 67 1016.7
20260902052533 84 74 3.5 5.2 0.00 0.00 0.00 67 1016.6
20260902052029 85 71 3.5 3.5 0.00 0.00 0.00 67 1016.7
20260902051529 85 126 1.7 1.7 0.00 0.00 0.00 66 1016.6
20260902051028 85 83 2.6 2.6 0.00 0.00 0.00 66 1016.7
20260902050523 86 119 2.6 3.5 0.00 0.00 0.00 65 1016.9
20260902050018 86 120 2.6 5.2 0.00 0.00 0.00 65 1016.7
20260902045513 86 164 3.5 5.2 0.00 0.00 0.00 64 1016.6
20260902045010 86 131 7.0 7.8 0.00 0.00 0.00 64 1016.8
20260902044504 86 107 3.5 3.5 0.00 0.00 0.00 64 1016.7
20260902044000 86 139 3.5 3.5 0.00 0.00 0.00 63 1016.8
20260902043455 87 125 3.5 3.5 0.00 0.00 0.00 63 1017.0
20260902042950 87 99 5.2 6.1 0.00 0.00 0.00 63 1017.0
20260902042449 87 99 0.9 1.7 0.00 0.00 0.00 62 1017.0
20260902041944 87 88 3.5 5.2 0.00 0.00 0.00 61 1016.9
20260902041438 87 123 1.7 2.6 0.00 0.00 0.00 62 1016.7
20260902040938 87 122 4.3 5.2 0.00 0.00 0.00 61 1016.6
20260902040428 87 113 2.6 3.5 0.00 0.00 0.00 61 1016.7
20260902035926 88 141 4.3 6.1 0.00 0.00 0.00 60 1016.6
20260902035421 88 89 3.5 5.2 0.00 0.00 0.00 60 1016.7
20260902034920 88 132 1.7 2.6 0.00 0.00 0.00 60 1016.6
20260902034415 88 143 3.5 3.5 0.00 0.00 0.00 60 1016.5
20260902033915 88 169 2.6 3.5 0.00 0.00 0.00 60 1016.5
20260902033409 88 129 1.7 1.7 0.00 0.00 0.00 59 1016.2
20260902032908 89 123 1.7 1.7 0.00 0.00 0.00 59 1016.4
20260902032403 88 163 1.7 1.7 0.00 0.00 0.00 59 1016.3
20260902031903 89 136 1.7 1.7 0.00 0.00 0.00 59 1016.2
20260902031359 89 144 3.5 3.5 0.00 0.00 0.00 58 1016.3
20260902030854 89 170 3.5 3.5 0.00 0.00 0.00 58 1016.3
20260902030348 89 123 2.6 2.6 0.00 0.00 0.00 58 1016.2
20260902025847 89 103 1.7 1.7 0.00 0.00 0.00 57 1016.1
20260902025343 89 123 3.5 6.1 0.00 0.00 0.00 57 1015.8
20260902024838 89 101 2.6 2.6 0.00 0.00 0.00 57 1015.4
20260902024334 89 103 3.5 3.5 0.00 0.00 0.00 56 1015.4
20260902023829 89 90 3.5 3.5 0.00 0.00 0.00 56 1015.6
20260902023324 89 124 1.7 2.6 0.00 0.00 0.00 56 1015.4
20260902022823 90 116 5.2 6.1 0.00 0.00 0.00 55 1015.4
20260902022318 90 116 4.3 6.1 0.00 0.00 0.00 55 1015.4
20260902021814 90 132 3.5 5.2 0.00 0.00 0.00 54 1015.3
20260902021309 90 71 3.5 5.2 0.00 0.00 0.00 54 1015.1
20260902020805 90 101 4.3 7.8 0.00 0.00 0.00 53 1015.3
20260902020301 90 95 2.6 2.6 0.00 0.00 0.00 53 1015.2